When you browse on this site, cookies collect data to enhance your experience and personalize the content and advertising you see.
Visit our Privacy Policy to learn more. By continuing to use the site, you agree to this use of cookies and data.
  • en France
  • Liste des pays
  • À 7 jours
  • Température de l'eau
  • Carte météo
  • Widgets météo
  • user-avatar
    Se connecter

    Météo par heure à Tuzla

    Ce jour, 26 Août, Lundi

    Heure Température Précipitation Vent Pression Humidité
    00:00 +18°C° 0 mm 1 m/s 724 mmHg 88%
    01:00 +18°C° 0 mm 1 m/s 724 mmHg 87%
    02:00 +18°C° 0 mm 1 m/s 723 mmHg 87%
    03:00 +16°C° 0 mm 1 m/s 723 mmHg 87%
    04:00 +16°C° 0 mm 1 m/s 723 mmHg 87%
    05:00 +19°C° 0 mm 1 m/s 723 mmHg 85%
    06:00 +18°C° 0 mm 0 m/s 724 mmHg 83%
    07:00 +19°C° 0 mm 0 m/s 724 mmHg 81%
    08:00 +22°C° 0 mm 0 m/s 724 mmHg 71%
    09:00 +24°C° 0 mm 0 m/s 724 mmHg 61%
    10:00 +29°C° 0 mm 1 m/s 725 mmHg 51%
    11:00 +30°C° 0 mm 1 m/s 725 mmHg 48%
    12:00 +31°C° 0 mm 1 m/s 725 mmHg 45%
    13:00 +32°C° 0 mm 1 m/s 724 mmHg 41%
    14:00 +31°C° 1 mm 2 m/s 724 mmHg 48%
    15:00 +29°C° 1 mm 2 m/s 723 mmHg 55%
    16:00 +27°C° 1 mm 2 m/s 723 mmHg 62%
    17:00 +25°C° 2.4 mm 2 m/s 723 mmHg 72%
    18:00 +21°C° 2.4 mm 2 m/s 723 mmHg 82%
    19:00 +18°C° 2.4 mm 2 m/s 723 mmHg 92%
    20:00 +18°C° 0 mm 2 m/s 723 mmHg 92%
    21:00 +18°C° 0 mm 2 m/s 723 mmHg 91%
    22:00 +18°C° 0 mm 2 m/s 723 mmHg 91%
    23:00 +17°C° 0 mm 2 m/s 723 mmHg 90%

    Demain, 27 Août, Mardi

    Heure Température Précipitation Vent Pression Humidité
    00:00 +18°C° 0 mm 1 m/s 723 mmHg 89%
    01:00 +18°C° 0 mm 1 m/s 723 mmHg 88%
    02:00 +18°C° 0 mm 1 m/s 723 mmHg 87%
    03:00 +18°C° 0 mm 1 m/s 723 mmHg 87%
    04:00 +16°C° 0 mm 1 m/s 723 mmHg 86%
    05:00 +19°C° 0 mm 1 m/s 723 mmHg 83%
    06:00 +20°C° 0 mm 1 m/s 723 mmHg 80%
    07:00 +21°C° 0 mm 1 m/s 723 mmHg 77%
    08:00 +24°C° 0 mm 1 m/s 724 mmHg 67%
    09:00 +27°C° 0 mm 1 m/s 724 mmHg 56%
    10:00 +28°C° 0 mm 0 m/s 725 mmHg 45%
    11:00 +31°C° 0 mm 1 m/s 725 mmHg 42%
    12:00 +32°C° 0 mm 1 m/s 724 mmHg 38%
    13:00 +33°C° 0 mm 1 m/s 724 mmHg 35%
    14:00 +32°C° 0 mm 1 m/s 724 mmHg 39%
    15:00 +31°C° 0 mm 1 m/s 724 mmHg 42%
    16:00 +30°C° 0 mm 1 m/s 723 mmHg 46%
    17:00 +29°C° 0 mm 1 m/s 723 mmHg 50%
    18:00 +25°C° 0 mm 0 m/s 723 mmHg 54%
    19:00 +23°C° 0 mm 0 m/s 723 mmHg 58%
    20:00 +22°C° 0 mm 0 m/s 723 mmHg 61%
    21:00 +23°C° 0 mm 1 m/s 724 mmHg 64%
    22:00 +23°C° 0 mm 1 m/s 724 mmHg 67%
    23:00 +22°C° 0 mm 1 m/s 724 mmHg 69%

    Après-demain, 28 Août, Mercredi

    Heure Température Précipitation Vent Pression Humidité
    00:00 +22°C° 0 mm 1 m/s 724 mmHg 70%
    01:00 +21°C° 0 mm 1 m/s 724 mmHg 71%
    02:00 +21°C° 0 mm 1 m/s 723 mmHg 72%
    03:00 +20°C° 0 mm 1 m/s 723 mmHg 72%
    04:00 +20°C° 0 mm 1 m/s 723 mmHg 73%
    05:00 +21°C° 0 mm 1 m/s 723 mmHg 71%
    06:00 +22°C° 0 mm 1 m/s 723 mmHg 68%
    07:00 +23°C° 0 mm 1 m/s 724 mmHg 66%
    08:00 +26°C° 0 mm 1 m/s 724 mmHg 58%
    09:00 +29°C° 0 mm 1 m/s 724 mmHg 50%
    10:00 +31°C° 0 mm 1 m/s 724 mmHg 42%
    11:00 +32°C° 0 mm 1 m/s 724 mmHg 39%
    12:00 +33°C° 0 mm 1 m/s 724 mmHg 36%
    13:00 +34°C° 0 mm 1 m/s 723 mmHg 33%
    14:00 +33°C° 0 mm 1 m/s 723 mmHg 36%
    15:00 +32°C° 0 mm 1 m/s 723 mmHg 39%
    16:00 +32°C° 0 mm 1 m/s 722 mmHg 42%
    17:00 +30°C° 0 mm 1 m/s 722 mmHg 47%
    18:00 +27°C° 0 mm 1 m/s 722 mmHg 52%
    19:00 +25°C° 0 mm 1 m/s 722 mmHg 57%
    20:00 +25°C° 0 mm 1 m/s 722 mmHg 60%
    21:00 +24°C° 0 mm 1 m/s 722 mmHg 62%
    22:00 +23°C° 0 mm 1 m/s 722 mmHg 65%
    23:00 +22°C° 0 mm 1 m/s 722 mmHg 66%

    29 Août, Jeudi

    Heure Température Précipitation Vent Pression Humidité
    00:00 +22°C° 0 mm 1 m/s 722 mmHg 66%
    01:00 +21°C° 0 mm 1 m/s 722 mmHg 67%
    02:00 +21°C° 0 mm 1 m/s 722 mmHg 68%
    03:00 +21°C° 0 mm 1 m/s 722 mmHg 68%
    04:00 +20°C° 0 mm 1 m/s 722 mmHg 69%
    05:00 +21°C° 0 mm 1 m/s 722 mmHg 67%
    06:00 +23°C° 0 mm 1 m/s 722 mmHg 65%
    07:00 +24°C° 0 mm 1 m/s 722 mmHg 63%
    08:00 +26°C° 0 mm 1 m/s 722 mmHg 55%
    09:00 +27°C° 0 mm 0 m/s 722 mmHg 47%
    10:00 +30°C° 0 mm 0 m/s 723 mmHg 40%
    11:00 +32°C° 0 mm 1 m/s 723 mmHg 37%
    12:00 +33°C° 0 mm 1 m/s 722 mmHg 34%
    13:00 +34°C° 0 mm 1 m/s 722 mmHg 32%
    14:00 +33°C° 0 mm 1 m/s 722 mmHg 34%
    15:00 +32°C° 0 mm 1 m/s 722 mmHg 35%
    16:00 +32°C° 0 mm 1 m/s 721 mmHg 37%
    17:00 +29°C° 0 mm 1 m/s 721 mmHg 44%
    18:00 +27°C° 0 mm 1 m/s 721 mmHg 52%
    19:00 +25°C° 0 mm 1 m/s 721 mmHg 59%
    20:00 +24°C° 0 mm 1 m/s 721 mmHg 63%
    21:00 +22°C° 0 mm 1 m/s 722 mmHg 67%
    22:00 +21°C° 0 mm 1 m/s 722 mmHg 71%
    23:00 +21°C° 0 mm 1 m/s 722 mmHg 72%

    30 Août, Vendredi

    Heure Température Précipitation Vent Pression Humidité
    00:00 +21°C° 0 mm 1 m/s 721 mmHg 73%
    01:00 +20°C° 0 mm 1 m/s 721 mmHg 74%
    02:00 +20°C° 0 mm 1 m/s 721 mmHg 74%
    03:00 +20°C° 0 mm 1 m/s 721 mmHg 75%
    04:00 +19°C° 0 mm 1 m/s 721 mmHg 75%
    05:00 +19°C° 0 mm 0 m/s 722 mmHg 72%
    06:00 +20°C° 0 mm 0 m/s 722 mmHg 68%
    07:00 +21°C° 0 mm 0 m/s 722 mmHg 65%
    08:00 +26°C° 0 mm 1 m/s 723 mmHg 55%
    09:00 +28°C° 0 mm 1 m/s 723 mmHg 44%
    10:00 +30°C° 0 mm 2 m/s 723 mmHg 34%
    11:00 +31°C° 0 mm 2 m/s 723 mmHg 31%
    12:00 +32°C° 0 mm 2 m/s 723 mmHg 28%
    13:00 +34°C° 0 mm 3 m/s 723 mmHg 25%
    14:00 +33°C° 0 mm 3 m/s 723 mmHg 25%
    15:00 +32°C° 0 mm 2 m/s 722 mmHg 26%
    16:00 +32°C° 0 mm 2 m/s 722 mmHg 27%
    17:00 +29°C° 0 mm 2 m/s 722 mmHg 32%
    18:00 +26°C° 0 mm 1 m/s 722 mmHg 36%
    19:00 +24°C° 0 mm 1 m/s 722 mmHg 40%
    20:00 +23°C° 0 mm 1 m/s 722 mmHg 40%
    21:00 +22°C° 0 mm 1 m/s 722 mmHg 40%
    22:00 +22°C° 0 mm 1 m/s 722 mmHg 40%
    23:00 +21°C° 0 mm 1 m/s 722 mmHg 41%

    31 Août, Samedi

    Heure Température Précipitation Vent Pression Humidité
    00:00 +21°C° 0 mm 1 m/s 722 mmHg 41%
    01:00 +20°C° 0 mm 1 m/s 722 mmHg 42%
    02:00 +20°C° 0 mm 1 m/s 722 mmHg 43%
    03:00 +20°C° 0 mm 1 m/s 721 mmHg 43%
    04:00 +19°C° 0 mm 1 m/s 721 mmHg 44%
    05:00 +20°C° 0 mm 1 m/s 721 mmHg 45%
    06:00 +21°C° 0 mm 1 m/s 722 mmHg 46%
    07:00 +22°C° 0 mm 1 m/s 722 mmHg 48%
    08:00 +25°C° 0 mm 1 m/s 722 mmHg 42%
    09:00 +28°C° 0 mm 1 m/s 722 mmHg 36%
    10:00 +31°C° 0 mm 1 m/s 723 mmHg 30%
    11:00 +32°C° 0 mm 1 m/s 723 mmHg 28%
    12:00 +34°C° 0 mm 2 m/s 722 mmHg 26%
    13:00 +35°C° 0 mm 2 m/s 722 mmHg 25%
    14:00 +33°C° 0 mm 1 m/s 722 mmHg 26%
    15:00 +33°C° 0 mm 1 m/s 722 mmHg 27%
    16:00 +33°C° 0 mm 1 m/s 721 mmHg 28%
    17:00 +30°C° 0 mm 1 m/s 721 mmHg 34%
    18:00 +27°C° 0 mm 1 m/s 721 mmHg 40%
    19:00 +25°C° 0 mm 1 m/s 721 mmHg 46%
    20:00 +24°C° 0 mm 1 m/s 721 mmHg 48%
    21:00 +23°C° 0 mm 1 m/s 721 mmHg 49%
    22:00 +23°C° 0 mm 1 m/s 721 mmHg 51%
    23:00 +22°C° 0 mm 1 m/s 721 mmHg 53%
    Voir plus